Volver al catálogo

STARLINK-5247

ActivoComunicacionesVLEO
NORAD 54203·PAYLOAD·🇺🇸 United States

Lanzado Oct 28, 2022 desde Vandenberg Space Force Base

Loading…

Próximos Pases (próximas 24 horas)

TLE

ActualizadoSource: CelesTrak SupGP

Época: Sep 14, 2026, 20:47 UTC

1 54203C 22141AY  26257.86645833  .00006769  00000+0  19363-3 0  2578
2 54203  53.1588 214.1908 0001317  95.2260 151.1311 15.35403330    18

Sigue STARLINK-5247 en tiempo real con AllMySat

Download on the App Store